Temp_Advection
nan nan nan nan nan nan nan nan nan nan nan nan nan nan nan nan nan nan nan nan nan nan nan nan nan nan nan nan nan nan nan nan
nan 0 0 0 0 0 0 0 0 0 0 0 0 0 0 0 0 -0 -0 -0 -0 -0 -0 -0 -0 -0 -0 0 0 -0 -0 nan
nan 0 0 0 0 0 0 0 0 0 0 0 0 0 0 0 0 0 -0 -0 -0 -0 -0 -0 -0 0 0 0 -0 -0 -0 nan
nan 0 0 -0 -0 -0 0 0 -0 0 0 0 0 0 0 0 0 0 -0 -0 0 0 0 -0 -0 -0 -0 -0 -0 -0 -0 nan
nan 0 0 -0 -0 -0 0 0 0 0 0 0 0 0 0 0 0 0 -0 -0 -0 -0 0 -0 0 0 -0 -0 -0 -0 -0 nan
nan -0 -0 -0 -0 0 0 0 0 0 0 0 0 0 0 0 0 0 0 0 0 -0 -0 -0 0 0 0 -0 0 0 0 nan
nan -1 -0 0 -0 0 -0 0 0 0 0 0 0 0 0 0 0 0 0 -0 0 0 0 0 0 0 0 -0 -0 -0 0 nan
nan -1 -0 -0 -0 -0 0 0 0 0 0 0 0 0 0 0 0 0 -0 0 0 0 0 0 0 -0 -0 -0 0 0 -0 nan
nan -0 -0 -1 -0 -0 0 0 1 0 0 0 0 0 0 0 -0 -0 0 0 0 0 0 0 -0 -0 -0 -0 0 0 0 nan
nan -0 -0 -0 0 0 1 1 1 0 0 0 0 0 0 0 -0 0 0 0 0 -0 0 -0 -0 -0 0 0 0 0 0 nan
nan 0 1 1 1 1 2 1 1 0 0 0 1 0 0 0 0 0 0 0 -0 0 0 0 -0 -0 -0 -0 -0 -0 0 nan
nan 1 1 2 1 1 2 0 0 0 0 0 0 0 0 0 0 0 0 0 0 0 0 -0 -0 -0 -0 0 0 0 0 nan
nan 1 1 1 1 0 0 1 1 0 0 0 0 0 0 0 0 0 0 0 0 0 -0 -0 -0 -0 0 0 0 0 0 nan
nan 1 0 0 0 1 2 2 1 1 1 0 0 0 0 0 0 0 0 0 0 -0 -0 -0 -0 0 0 0 0 0 0 nan
nan -0 1 2 2 2 0 -1 -0 -0 -0 -0 1 0 0 0 0 0 0 0 -0 -0 0 -0 0 0 0 0 0 0 -0 nan
nan 1 2 2 1 -0 -2 -1 -1 -1 0 1 1 0 1 0 0 0 0 -0 -0 0 0 0 0 0 1 1 1 0 -0 nan
nan 2 2 2 2 -0 1 1 0 1 2 1 0 1 1 1 1 0 0 -0 -0 0 0 0 1 1 1 1 1 1 1 nan
nan 1 1 4 3 1 1 1 1 1 1 0 1 1 1 1 0 0 0 -0 0 0 0 1 1 1 1 1 0 0 1 nan
nan 1 2 4 2 1 1 1 1 1 1 1 2 1 0 1 0 0 -0 0 0 0 1 1 0 0 1 1 0 0 0 nan
nan nan nan nan nan nan nan nan nan nan nan nan nan nan nan nan nan nan nan nan nan nan nan nan nan nan nan nan nan nan nan nan
Wind_Speed
27 26 24 21 21 20 19 18 16 13 10 9 7 6 5 5 4 3 3 3 2 3 3 4 5 7 7 6 6 8 4 4
27 26 26 24 22 20 19 17 15 13 10 9 7 6 5 3 3 2 2 1 1 2 3 3 4 6 8 10 9 7 3 2
27 27 27 25 24 22 20 17 15 14 12 10 8 7 6 4 3 2 1 2 2 2 1 4 6 4 5 6 6 5 3 4
27 28 28 27 26 24 22 20 18 15 13 11 10 9 7 5 5 1 2 3 2 2 3 5 4 4 4 4 4 5 5 6
27 29 29 29 28 26 24 22 20 18 16 13 12 12 10 8 5 3 0 3 2 5 5 3 2 3 3 4 5 6 7 8
27 30 32 30 28 27 25 24 22 21 18 15 15 15 12 10 5 5 4 1 1 2 2 2 4 4 4 5 6 7 8 7
27 29 34 33 31 29 28 26 24 21 20 18 17 17 12 12 7 7 7 8 8 7 7 5 6 6 8 4 1 1 2 3
25 28 33 34 33 32 29 27 25 23 23 21 20 16 11 11 12 10 10 13 12 10 9 8 8 6 6 6 5 6 7 7
26 26 28 33 33 33 31 29 25 23 22 24 25 20 16 15 14 16 16 16 12 10 10 11 10 9 9 8 7 8 11 14
31 31 29 32 33 32 32 29 27 25 22 24 25 23 20 21 20 20 17 16 16 17 17 15 13 10 9 11 11 14 16 18
38 36 34 35 35 33 32 30 29 26 23 22 26 26 26 24 21 22 22 22 21 19 17 16 13 13 14 15 15 16 17 16
45 43 39 37 37 37 35 32 30 28 26 26 30 29 28 26 24 23 24 23 22 20 17 16 15 14 12 12 12 14 15 11
50 50 46 43 42 42 43 41 37 33 30 27 31 29 28 27 25 25 24 24 22 21 17 16 14 12 12 11 11 11 9 12
53 53 51 48 45 42 44 44 41 35 32 31 31 29 30 28 26 27 27 25 23 21 18 16 14 13 12 12 5 8 12 11
52 53 54 52 49 45 46 44 38 36 37 36 35 34 33 31 28 28 27 26 24 22 19 16 14 13 12 9 5 4 9 12
47 54 55 55 52 48 48 49 47 45 43 39 37 36 36 33 32 30 29 28 26 22 19 16 14 12 11 11 11 12 7 11
44 53 59 58 56 50 47 49 46 44 45 40 38 38 36 36 34 31 31 28 26 22 19 16 13 11 11 11 12 12 13 13
47 54 57 61 57 53 49 49 48 47 45 44 41 37 38 38 37 34 32 29 27 23 20 17 14 12 12 11 10 10 11 11
49 52 55 64 58 56 52 51 48 46 45 46 45 41 43 42 40 37 35 31 28 24 20 16 13 12 12 11 11 10 12 13
50 53 57 63 61 59 54 52 48 45 45 45 46 44 44 43 41 38 36 33 30 26 21 18 15 14 12 11 11 11 12 12
Wind_Direction
175 173 175 177 178 176 173 170 168 164 159 151 145 137 130 125 117 109 99 92 93 84 73 68 71 77 65 72 100 120 107 54
181 180 180 181 183 184 184 180 175 172 167 161 158 155 153 146 129 100 69 52 42 58 71 74 85 94 64 77 113 108 110 14
190 189 187 188 189 189 191 191 186 184 181 178 177 181 184 180 155 136 20 345 357 42 86 105 104 110 105 99 84 55 29 11
199 199 195 195 196 197 198 199 198 197 195 192 192 197 194 184 162 137 343 315 304 123 111 120 100 59 57 48 12 4 358 350
202 206 204 203 203 204 206 206 206 206 205 202 202 202 201 201 183 230 120 19 66 123 122 110 59 329 28 358 345 354 342 343
208 209 210 209 210 212 213 214 213 214 213 210 211 208 211 210 218 202 214 223 223 229 191 253 241 269 315 331 332 322 314 304
213 212 211 213 214 216 217 219 220 222 220 219 217 214 221 215 239 225 252 223 234 234 237 231 263 289 303 287 117 5 310 286
217 214 213 216 217 219 221 222 223 225 224 223 214 212 216 233 245 227 234 220 227 234 249 258 266 250 193 227 243 264 287 287
218 218 216 216 221 220 220 221 220 225 227 217 213 210 211 228 242 242 242 239 235 231 233 242 219 222 231 248 267 279 285 290
222 217 218 216 220 219 219 217 220 221 219 220 213 211 214 228 238 240 232 227 230 237 228 228 229 229 245 260 269 279 284 286
222 223 221 217 217 218 219 220 219 222 220 220 216 215 212 227 241 239 233 230 233 228 225 228 234 241 246 255 268 277 285 285
227 223 221 218 217 216 217 222 220 223 227 226 215 218 219 226 238 235 223 222 220 219 222 232 238 246 257 267 273 284 284 282
229 222 220 217 215 215 215 218 220 223 223 222 214 221 225 228 235 225 221 217 219 220 227 237 243 251 263 277 287 278 267 274
227 228 221 221 218 219 220 218 217 221 220 218 218 222 226 233 228 223 214 213 219 227 226 232 239 253 266 287 276 264 254 254
227 229 231 222 220 216 219 219 217 214 219 218 219 222 230 232 221 217 218 221 226 227 229 228 236 252 269 273 279 260 274 278
235 228 230 223 221 216 218 216 212 216 214 214 215 221 227 223 216 218 223 223 225 226 224 228 234 247 261 271 274 273 285 295
235 229 226 225 219 218 216 214 216 216 214 212 217 222 222 218 217 217 221 221 219 221 226 232 244 250 253 254 257 259 258 264
229 227 226 226 218 218 217 214 213 214 215 211 216 219 215 214 218 216 220 222 220 221 224 233 242 251 258 261 254 252 255 270
226 227 225 224 219 219 217 216 218 219 217 213 214 214 210 211 215 217 219 219 219 221 225 231 242 254 260 261 265 271 274 281
228 225 222 222 220 220 219 218 219 222 223 218 217 219 214 212 215 218 216 216 216 217 221 227 237 247 251 256 263 266 274 279
Height
1534 1537 1540 1543 1545 1546 1547 1548 1550 1552 1554 1556 1557 1557 1558 1558 1559 1560 1560 1560 1560 1561 1561 1561 1561 1561 1561 1560 1560 1561 1561 1561
1533 1535 1538 1541 1544 1546 1548 1549 1550 1552 1554 1555 1556 1557 1557 1558 1559 1560 1560 1561 1561 1561 1561 1561 1561 1561 1561 1561 1561 1561 1561 1560
1532 1534 1537 1539 1542 1545 1547 1549 1550 1552 1553 1554 1555 1556 1557 1558 1559 1560 1560 1561 1561 1561 1561 1561 1561 1561 1562 1561 1561 1561 1560 1560
1530 1532 1535 1537 1540 1542 1544 1547 1549 1551 1552 1553 1554 1554 1556 1557 1558 1559 1560 1560 1561 1561 1561 1561 1561 1561 1561 1561 1561 1560 1560 1559
1527 1530 1533 1535 1537 1539 1542 1544 1547 1549 1551 1552 1552 1553 1554 1556 1557 1558 1559 1560 1559 1561 1561 1561 1561 1561 1561 1560 1560 1560 1560 1559
1523 1527 1529 1532 1534 1536 1539 1541 1544 1546 1548 1550 1550 1551 1552 1554 1555 1557 1558 1559 1560 1561 1561 1561 1561 1560 1560 1559 1559 1559 1558 1558
1519 1522 1525 1528 1530 1533 1535 1537 1540 1543 1545 1547 1548 1549 1550 1552 1553 1555 1556 1558 1559 1559 1559 1559 1560 1559 1559 1559 1558 1557 1556 1555
1516 1518 1521 1524 1526 1528 1531 1534 1536 1539 1541 1543 1544 1546 1548 1549 1551 1552 1553 1555 1556 1557 1558 1558 1558 1558 1558 1556 1556 1555 1555 1553
1510 1512 1516 1518 1520 1524 1526 1529 1532 1534 1536 1538 1540 1542 1545 1546 1548 1550 1551 1552 1554 1555 1555 1556 1556 1556 1555 1554 1554 1553 1552 1551
1505 1507 1508 1511 1513 1516 1519 1523 1526 1529 1532 1534 1536 1538 1541 1544 1546 1547 1548 1549 1550 1551 1552 1553 1553 1554 1553 1553 1552 1552 1551 1548
1498 1500 1502 1504 1507 1510 1514 1518 1522 1525 1528 1529 1532 1534 1536 1540 1542 1544 1545 1546 1546 1547 1549 1550 1551 1551 1551 1551 1550 1549 1548 1546
1489 1492 1496 1499 1503 1505 1509 1511 1515 1520 1523 1525 1528 1530 1532 1535 1538 1539 1540 1541 1543 1544 1546 1546 1547 1547 1548 1547 1547 1545 1544 1543
1481 1483 1488 1491 1494 1498 1500 1501 1506 1511 1516 1520 1523 1526 1529 1530 1532 1533 1536 1538 1540 1541 1542 1543 1543 1543 1543 1543 1543 1541 1541 1540
1476 1477 1480 1483 1486 1490 1495 1498 1501 1506 1511 1514 1518 1522 1524 1526 1527 1529 1531 1533 1535 1537 1539 1539 1539 1540 1540 1539 1539 1540 1538 1537
1468 1470 1471 1476 1480 1485 1489 1494 1500 1503 1504 1506 1510 1516 1518 1520 1523 1524 1527 1529 1531 1533 1534 1535 1535 1536 1536 1537 1536 1535 1534 1532
1459 1461 1463 1468 1472 1475 1476 1479 1483 1487 1492 1496 1503 1509 1512 1514 1517 1520 1522 1524 1526 1529 1530 1531 1531 1531 1531 1531 1531 1531 1530 1528
1449 1452 1456 1457 1460 1465 1469 1474 1479 1481 1485 1492 1498 1503 1506 1510 1511 1514 1517 1520 1521 1523 1525 1526 1527 1528 1527 1527 1527 1526 1526 1526
1440 1443 1446 1449 1453 1457 1460 1465 1469 1473 1479 1484 1489 1495 1501 1505 1507 1508 1511 1514 1516 1518 1519 1521 1522 1523 1523 1522 1522 1522 1522 1521
1429 1433 1437 1439 1445 1449 1452 1455 1460 1464 1469 1474 1480 1485 1491 1496 1502 1503 1504 1507 1511 1513 1515 1516 1516 1517 1518 1518 1518 1518 1517 1516
1417 1422 1426 1430 1435 1439 1445 1450 1454 1460 1463 1467 1473 1478 1483 1491 1495 1499 1500 1503 1505 1507 1510 1511 1511 1512 1513 1514 1514 1513 1512 1511